COSMOS 516

Satellite information

Favourite Embed

Satellite Type and Status

PAYLOADIN ORBIT

Key statistics

Satellite COSMOS 516 at a glance.

Uptime

19251

Days in orbit

Revolutions

≈ 13.8

Per day

Orbit

LEO

Low Earth Orbit

Inclination

64.8

Latest

Satellite identification and parameters

Extended collection of information and parameters for COSMOS 516.

Object identification

Identified? True

Debris? False

Object name: COSMOS 516

International designator: 1972-066A

Object number (NORAD): 6154

Object ID (CCSDS): 6154

Country: COMMONWEALTH OF INDEPENDENT STATES (CIS)

Current information (Y/N): Y

RCS size: LARGE

Orbital parameters

Period: 104.515 minutes

Inclination: 64.8085 deg

SMA: 7349.877 km

Apoapsis: 1032.764 km

Periapsis: 910.72 km

RAAN: 161.7179 deg

Eccentricy: 0.0083025

Argument of periapsis: 223.433 deg

Mean anomaly: 136.0165 deg

Mean motion: 13.77788827 rev/day

Mean motion (dot): -0.00000057 rev/day2

B* drag term: 0.000031319 1/REarth

Two-line elements (TLE)

Creation date: May 6, 2025, 3:54 a.m.

Reference frame: TEME

Reference center: EARTH

Epoch: May 5, 2025, 6:58 p.m. UTC

TLE line 0: 0 COSMOS 516

TLE line 1: 1 06154U 72066A 25125.79034633 -.00000057 00000-0 31319-4 0 9991

TLE line 2: 2 06154 64.8085 161.7179 0083025 223.4330 136.0165 13.77788827651794

Live tracking on map

Real-time ground track for satellite COSMOS 516.

In-orbit conjunctions

A list of the most updated potential collisions computed for object COSMOS 516.

Target Orbit TCA Probability of collision Miss distance Type
FENGYUN 1C DEB SSO 2024-10-20 19:03:56 0.0006898954 172.0 (m) DEBRIS
FENGYUN 1C DEB SSO 2024-10-04 14:35:23 0.0001553324 612.0 (m) DEBRIS

Associated space launch

Active radar satellite for ocean surveillance powered by a nuclear reactor.

COSMOS 516 was lifted into orbit during the mission ‘Tsiklon-2 | US-A 4’, on board a Tsiklon-2 space rocket.

The launch took place on Aug. 21, 1972, 10:36 a.m. from 90/19.

For more information about the launch, click the button.

Launch to space Tsiklon-2 | US-A 4
Tsiklon-2 | US-A 4

Agency: N/A

Status: Launch Successful

Launch date: Aug. 21, 1972, 10:36 a.m. UTC

Rocket: Tsiklon-2

Launch pad: 90/19

Location: Baikonur Cosmodrome, Republic of Kazakhstan

...

Latest news about this satellite

There are no fresh news available about this satellite. Check back as we update our databases every day.


Newsletter sign-up

Weekly statistics, charts and insights to help you stay on top of the space industry.